Showing default

TIANMU-1 17, 58702

Orbit data source: Space-Track

TIANMU-1 17, 58702 is a payload satellite owned by Hangtian Tianmu (CN) in SSO that was launched on Fri, 05 Jan 2024 UTC via a KUAIZHOU-1A launch vehicle from the Jiuquan Satellite Launch Center, China (JSC). Payload-class satellites include a variety of spacecraft equipped with specific instruments for various scientific and technological missions. These include communications satellites like Starlink; space stations such as the ISS; scientific satellites like the Hubble; Earth observation satellites from companies like Planet Labs, Umbra, and HawkEye 360; GPS; miniature CubeSats for education and research; and military/defense satellites.

Loading next visibility...
Identifier
58702, 2024-004C
Orbit
SSO
Country
Flag of CNCN / PRC
Related business
Manufacturer
Hangtian Tianmu
Mission
Operational Commercial Weather
Bus & Motor
TIANMU, Unknown motor
Mass
50 kg wet, ~50 kg dry
Launch date (UTC)
2024-01-05 (2 years ago)
Launch vehicle
KUAIZHOU-1A
Launch site
Jiuquan Satellite Launch Center, China (JSC)
Object type
Payload
Rocket body
Debris
Shape & HBR
Box, 0.8 m
Radar Cross Section
2.000 m², Large (>1 m²)

Expand to show TLE details & history
Last TLE update: 22 hours ago

TLE from 22 hours ago
0 TIANMU-1 17
1 58702U 24004C   26172.53002447  .00004662  00000-0  17987-3 0  9998
2 58702  97.4648 358.4398 0005070 359.4602   0.6630 15.26784809136435
Epoch: 2026-06-21T12:43Z
TLE epoch observation values (Epoch: 2026-06-21T12:43:14.114Z)
Latitude
-0.00003°
Longitude
-102.09798°
Altitude
485.049 km
Speed
7.625 km/s
True Right ascension
23h 53m 45s
True Declination
0° 00' 00"
Sunlit
Object was in daylight at epoch
Visualization orbit readout
Latitude
Unknown
Longitude
Unknown
Altitude
Unknown
Speed
Unknown
Apparent Right ascension
Unknown
Apparent Declination
Unknown
Sunlit
N/A
Visualization observer readout
Local Sidereal Time
21:37:34
Azimuth
Unknown
Elevation
Unknown
Doppler factor
Unknown
Orbital elements
Apogee altitude
485.869 km
Perigee altitude
478.912 km
Semi-major axis
6,860.528 km
Eccentricity
0.00051
Inclination
97.4648°
RAAN
358.4398°
Arg. of periapsis
359.4602°
True anomaly
0.66367°
Mean anomaly
0.663°
Eccentric anomaly
0.66334°
Mean motion
3.8195 °/min
Orbital period
94.25 mins
BSTAR
0.00017987
Loading maneuver chart data...
Computing Atmospheric mass density...
Loading historical data...
Loading historical data...
Loading historical data...
Loading historical data...
Loading historical data...
Loading historical data...
Loading historical data...
Other satellites on launch #4 in the year 2024 (2024-01-05 UTC)

Documentation

Showing up to 5 results
|